Weather History for KGLY - January, 2014

Change the Weather History Date:

Sunday, January 12, 2014

  Actual Average (KSZL) Record (KSZL)
Temperature  
Mean Temperature 49 °F -  
Max Temperature 66 °F 36 °F 64 °F (2006)
Min Temperature 32 °F 20 °F -4 °F (1997)
Degree Days  
Heating Degree Days 16    
Moisture  
Dew Point 32 °F    
Average Humidity 55    
Maximum Humidity 93    
Minimum Humidity 28    
Precipitation  
Precipitation 0.00 in - - ()
Sea Level Pressure  
Sea Level Pressure 29.70 in    
Wind  
Wind Speed 10 mph (South)    
Max Wind Speed 25 mph    
Max Gust Speed 37 mph    
Visibility 10 miles    
Events      
Averages and records for this station are not official NWS values.
T = Trace of Precipitation, MM = Missing Value Source: NWS Daily Summary

Daily Weather History Graph

Daily Weather History Graph

Search for Another Location

Airport or City:

Trip Planner

Search our weather history database for the weather conditions in past years. The results will help you decide how hot, cold, wet, or windy it might be!

Date:

Astronomy

Jan. 12, 2014 Rise Set
Actual Time 7:31 AM CST 5:15 PM CST
Civil Twilight 7:02 AM CST 5:44 PM CST
Nautical Twilight 6:29 AM CST 6:17 PM CST
Astronomical Twilight 5:57 AM CST 6:48 PM CST
Moon 2:43 PM CST (1/12) 4:30 AM CST (1/12)
Length of Visible Light 10h 42m
Length of Day
9h 43m
Waxing Gibbous, 90% of the Moon is Illuminated
Jan 12
Waxing Gibbous
Jan 15
Full
Jan 23
Last Quarter
Jan 30
New
Feb 6
First Quarter

Hourly Weather History & Observations

Time (CST) Temp. Windchill Dew Point Humidity Pressure Visibility Wind Dir Wind Speed Gust Speed Precip Events Conditions
12:15 AM 32.0 °F 27.5 °F 30.2 °F 93% 29.94 in 10.0 mi South 4.6 mph - N/A   Clear
12:35 AM 32.0 °F 25.6 °F 30.2 °F 93% 29.93 in 10.0 mi South 6.9 mph - N/A   Clear
12:55 AM 32.0 °F 27.5 °F 30.2 °F 93% 29.92 in 10.0 mi South 4.6 mph - N/A   Clear
1:15 AM 32.0 °F 26.4 °F 30.2 °F 93% 29.91 in 10.0 mi South 5.8 mph - N/A   Clear
1:35 AM 32.0 °F 26.4 °F 30.2 °F 93% 29.90 in 10.0 mi South 5.8 mph - N/A   Clear
1:55 AM 32.0 °F 25.6 °F 30.2 °F 93% 29.90 in 10.0 mi South 6.9 mph - N/A   Clear
2:15 AM 32.0 °F 24.8 °F 30.2 °F 93% 29.89 in 10.0 mi South 8.1 mph - N/A   Clear
2:35 AM 33.8 °F 27.7 °F 30.2 °F 87% 29.90 in 10.0 mi South 6.9 mph - N/A   Clear
2:55 AM 33.8 °F 27.7 °F 30.2 °F 87% 29.90 in 10.0 mi South 6.9 mph - N/A   Clear
3:15 AM 33.8 °F 27.0 °F 30.2 °F 87% 29.90 in 10.0 mi South 8.1 mph - N/A   Clear
3:35 AM 33.8 °F 27.0 °F 30.2 °F 87% 29.89 in 10.0 mi South 8.1 mph - N/A   Clear
3:55 AM 33.8 °F 27.7 °F 30.2 °F 87% 29.87 in 10.0 mi SSE 6.9 mph - N/A   Clear
4:15 AM 33.8 °F 27.7 °F 30.2 °F 87% 29.86 in 10.0 mi South 6.9 mph - N/A   Clear
4:35 AM 33.8 °F 25.3 °F 30.2 °F 87% 29.85 in 10.0 mi South 11.5 mph - N/A   Clear
4:55 AM 35.6 °F 28.6 °F 30.2 °F 81% 29.84 in 10.0 mi SSE 9.2 mph - N/A   Clear
5:15 AM 35.6 °F 28.0 °F 30.2 °F 81% 29.84 in 10.0 mi South 10.4 mph - N/A   Clear
5:35 AM 35.6 °F 28.0 °F 30.2 °F 81% 29.84 in 10.0 mi South 10.4 mph - N/A   Clear
5:55 AM 35.6 °F 28.6 °F 30.2 °F 81% 29.83 in 10.0 mi South 9.2 mph - N/A   Clear
6:15 AM 35.6 °F 28.6 °F 30.2 °F 81% 29.82 in 10.0 mi South 9.2 mph - N/A   Clear
6:35 AM 35.6 °F 29.9 °F 30.2 °F 81% 29.81 in 10.0 mi SSE 6.9 mph - N/A   Clear
6:55 AM 37.4 °F 30.3 °F 30.2 °F 75% 29.81 in 10.0 mi SSE 10.4 mph - N/A   Clear
7:15 AM 37.4 °F 30.3 °F 30.2 °F 75% 29.80 in 10.0 mi South 10.4 mph - N/A   Clear
7:35 AM 39.2 °F 32.5 °F 30.2 °F 70% 29.80 in 10.0 mi South 10.4 mph - N/A   Clear
7:55 AM 42.8 °F 36.2 °F 30.2 °F 61% 29.80 in 10.0 mi South 12.7 mph 18.4 mph N/A   Clear
8:15 AM 44.6 °F 38.1 °F 30.2 °F 57% 29.79 in 10.0 mi South 13.8 mph - N/A   Clear
8:35 AM 44.6 °F 38.1 °F 30.2 °F 57% 29.79 in 10.0 mi South 13.8 mph 19.6 mph N/A   Clear
8:55 AM 46.4 °F 39.5 °F 30.2 °F 53% 29.77 in 10.0 mi South 17.3 mph 23.0 mph N/A   Clear
9:15 AM 48.2 °F - 30.2 °F 50% 29.78 in 10.0 mi South 15.0 mph 21.9 mph N/A   Clear
9:35 AM 51.8 °F - 30.2 °F 44% 29.77 in 10.0 mi South 17.3 mph 27.6 mph N/A   Clear
9:55 AM 51.8 °F - 32.0 °F 47% 29.76 in 10.0 mi South 17.3 mph 25.3 mph N/A   Clear
10:15 AM 53.6 °F - 32.0 °F 44% 29.75 in 10.0 mi South 16.1 mph 32.2 mph N/A   Clear
10:35 AM 53.6 °F - 32.0 °F 44% 29.72 in 10.0 mi South 20.7 mph 33.4 mph N/A   Clear
10:55 AM 55.4 °F - 32.0 °F 41% 29.71 in 10.0 mi South 19.6 mph 31.1 mph N/A   Clear
11:15 AM 57.2 °F - 32.0 °F 38% 29.69 in 10.0 mi South 18.4 mph 23.0 mph N/A   Clear
11:35 AM 57.2 °F - 32.0 °F 38% 29.66 in 10.0 mi South 21.9 mph 33.4 mph N/A   Clear
11:55 AM 60.8 °F - 32.0 °F 34% 29.64 in 10.0 mi SSW 18.4 mph 28.8 mph N/A   Clear
12:15 PM 62.6 °F - 33.8 °F 34% 29.62 in 10.0 mi SSW 24.2 mph 32.2 mph N/A   Clear
12:35 PM 62.6 °F - 33.8 °F 34% 29.60 in 10.0 mi SSW 20.7 mph 32.2 mph N/A   Clear
12:55 PM 64.4 °F - 33.8 °F 32% 29.58 in 10.0 mi SSW 19.6 mph 27.6 mph N/A   Clear
1:15 PM 64.4 °F - 33.8 °F 32% 29.56 in 10.0 mi SSW 19.6 mph 35.7 mph N/A   Clear
1:35 PM 66.2 °F - 33.8 °F 30% 29.55 in 10.0 mi SSW 23.0 mph 36.8 mph N/A   Clear
1:55 PM 66.2 °F - 33.8 °F 30% 29.54 in 10.0 mi SSW 19.6 mph 34.5 mph N/A   Clear
2:15 PM 66.2 °F - 33.8 °F 30% 29.55 in 10.0 mi SSW 20.7 mph 35.7 mph N/A   Clear
2:35 PM 66.2 °F - 33.8 °F 30% 29.54 in 10.0 mi SSW 20.7 mph 29.9 mph N/A   Clear
2:55 PM 66.2 °F - 32.0 °F 28% 29.53 in 10.0 mi SSW 25.3 mph 32.2 mph N/A   Clear
3:15 PM 66.2 °F - 32.0 °F 28% 29.53 in 10.0 mi SSW 18.4 mph 34.5 mph N/A   Clear
3:35 PM 66.2 °F - 32.0 °F 28% 29.54 in 10.0 mi SSW 17.3 mph 24.2 mph N/A   Clear
3:55 PM 66.2 °F - 32.0 °F 28% 29.54 in 10.0 mi SSW 16.1 mph 25.3 mph N/A   Clear
4:15 PM 64.4 °F - 32.0 °F 30% 29.55 in 10.0 mi SSW 10.4 mph 24.2 mph N/A   Clear
4:35 PM 64.4 °F - 32.0 °F 30% 29.56 in 10.0 mi SSW 12.7 mph 17.3 mph N/A   Clear
4:55 PM 62.6 °F - 32.0 °F 32% 29.56 in 10.0 mi SSW 11.5 mph - N/A   Clear
5:15 PM 60.8 °F - 32.0 °F 34% 29.56 in 10.0 mi SSW 9.2 mph - N/A   Clear
5:35 PM 59.0 °F - 32.0 °F 36% 29.58 in 10.0 mi SSW 6.9 mph - N/A   Clear
5:55 PM 57.2 °F - 32.0 °F 38% 29.59 in 10.0 mi SSW 5.8 mph - N/A   Clear
6:15 PM 57.2 °F - 32.0 °F 38% 29.59 in 10.0 mi South 6.9 mph - N/A   Clear
6:35 PM 55.4 °F - 33.8 °F 44% 29.60 in 10.0 mi South 6.9 mph - N/A   Clear
6:55 PM 55.4 °F - 32.0 °F 41% 29.60 in 10.0 mi South 8.1 mph - N/A   Clear
7:15 PM 55.4 °F - 32.0 °F 41% 29.60 in 10.0 mi South 9.2 mph - N/A   Clear
7:35 PM 55.4 °F - 33.8 °F 44% 29.60 in 10.0 mi South 9.2 mph - N/A   Clear
7:55 PM 55.4 °F - 33.8 °F 44% 29.60 in 10.0 mi South 9.2 mph - N/A   Clear
8:15 PM 55.4 °F - 33.8 °F 44% 29.59 in 10.0 mi South 10.4 mph - N/A   Clear
8:35 PM 55.4 °F - 33.8 °F 44% 29.59 in 10.0 mi South 9.2 mph - N/A   Clear
8:55 PM 53.6 °F - 33.8 °F 47% 29.59 in 10.0 mi South 9.2 mph - N/A   Clear
9:15 PM 53.6 °F - 33.8 °F 47% 29.58 in 10.0 mi South 9.2 mph - N/A   Clear
9:35 PM 53.6 °F - 33.8 °F 47% 29.58 in 10.0 mi South 10.4 mph - N/A   Clear
9:55 PM 53.6 °F - 33.8 °F 47% 29.58 in 10.0 mi South 10.4 mph - N/A   Clear
10:15 PM 53.6 °F - 33.8 °F 47% 29.57 in 10.0 mi South 10.4 mph - N/A   Clear
10:35 PM 53.6 °F - 33.8 °F 47% 29.61 in 10.0 mi West 9.2 mph - N/A   Clear
10:55 PM 51.8 °F - 33.8 °F 50% 29.61 in 10.0 mi WSW 9.2 mph - N/A   Clear
11:15 PM 48.2 °F - 33.8 °F 58% 29.61 in 10.0 mi WSW 5.8 mph - N/A   Clear
11:35 PM 48.2 °F - 33.8 °F 58% 29.61 in 10.0 mi SSW 4.6 mph - N/A   Clear
11:55 PM 48.2 °F - 32.0 °F 54% 29.61 in 10.0 mi South 5.8 mph - N/A   Clear